Temperature
28 25 24 25 25 26 26 26 26 26 27 26 24 24 24 24 24 24 23 23 23 23 23 22 22 22 22 21 21 21 20 20 20 20 20 19 19 19 19 19 19 19 19 19
25 25 26 27 28 28 27 26 26 26 27 26 24 24 24 23 24 23 23 23 23 23 23 22 22 22 22 21 21 21 20 20 20 20 20 20 19 19 19 19 19 19 19 19
25 26 28 28 28 28 27 26 26 25 26 25 25 23 23 23 24 24 23 23 23 23 23 23 22 22 22 22 21 21 21 20 20 20 20 20 19 19 19 19 19 19 18 18
26 27 28 28 28 28 26 27 27 27 24 23 24 22 22 22 22 23 23 23 23 23 23 23 23 22 22 22 21 21 21 21 20 20 20 20 20 19 19 19 19 18 18 18
26 27 27 27 28 28 27 28 27 26 24 23 23 22 22 22 22 22 23 23 23 23 23 23 23 23 22 22 22 21 21 21 20 20 20 20 20 19 19 19 19 18 18 18
26 28 28 28 29 29 28 27 25 23 22 23 23 22 22 21 22 23 23 23 23 23 23 23 23 23 22 22 22 22 21 21 20 20 20 20 20 19 19 19 19 19 18 18
26 27 28 29 28 28 27 24 23 23 21 22 22 22 22 23 23 23 23 24 24 23 23 23 23 22 22 22 22 22 21 21 20 20 20 20 20 19 19 19 19 18 18 18
25 25 27 28 27 26 26 24 23 23 22 22 22 22 22 24 24 24 24 24 24 23 23 23 23 23 22 22 22 21 21 21 21 20 20 20 19 19 19 19 18 18 18 18
24 25 27 29 28 27 26 24 23 21 22 22 22 22 22 23 23 23 24 24 24 24 23 23 23 23 22 22 22 22 21 21 21 21 20 20 19 19 19 19 18 18 18 18
25 25 26 28 28 27 26 24 22 22 22 22 22 22 21 22 22 22 23 23 24 23 23 23 23 23 22 22 22 22 21 21 21 21 20 20 19 19 19 19 18 18 18 18
24 24 25 26 26 26 26 25 22 20 21 21 21 22 23 22 22 22 22 24 24 23 23 23 23 23 22 22 22 21 21 21 21 20 20 20 19 19 19 18 18 18 18 18
23 22 22 24 25 26 25 24 22 22 21 20 20 21 24 23 22 23 23 23 23 23 23 23 23 23 22 22 22 21 21 21 20 20 20 19 19 19 18 18 18 18 18 18
24 21 22 23 24 24 25 25 23 20 20 19 20 22 23 22 22 23 23 23 23 23 23 23 22 22 22 22 21 21 21 21 20 20 20 19 19 19 18 18 18 18 18 17
24 20 21 23 23 23 24 25 24 21 20 20 21 22 22 22 21 22 22 22 22 23 22 22 22 22 22 21 21 21 21 20 20 20 19 19 19 19 18 18 18 18 17 17
22 22 23 23 24 25 25 25 24 23 21 21 21 21 21 21 21 21 22 22 22 22 22 22 21 21 21 21 21 21 20 20 20 19 19 19 19 18 18 18 18 17 17 17
20 21 22 23 25 25 25 25 24 24 23 22 22 21 21 21 21 21 21 21 21 21 21 21 21 21 21 20 20 20 20 20 19 19 19 18 18 18 18 17 17 17 17 17
20 20 21 21 23 24 23 24 24 23 23 22 21 21 20 20 21 21 21 21 21 21 21 21 21 21 20 20 20 20 19 19 19 19 18 18 18 18 17 17 17 17 17 16
20 19 18 20 22 23 22 23 24 23 23 22 21 21 20 21 21 21 21 21 20 20 20 20 20 20 20 20 19 19 19 19 18 18 18 18 17 17 17 17 17 16 16 16
20 19 19 18 20 21 22 23 23 22 21 21 21 21 21 21 20 20 20 21 21 21 20 20 20 20 19 19 19 19 19 18 18 18 18 17 17 17 17 17 17 16 16 16
19 19 19 19 21 21 22 23 24 22 20 21 21 20 20 20 18 19 20 20 20 20 20 20 19 19 19 18 18 18 18 18 18 17 17 17 17 17 17 16 16 16 16 15
20 19 19 19 20 20 22 23 23 21 20 21 21 21 21 20 20 20 20 20 20 20 19 19 19 18 18 18 18 18 17 17 17 17 17 17 17 16 16 16 16 16 15 15
19 19 19 18 19 20 22 22 21 20 21 21 21 21 21 21 20 20 20 19 19 19 19 19 18 18 18 17 17 17 17 16 16 16 16 16 16 16 16 16 15 15 15 15
19 19 18 18 19 20 21 22 22 23 22 22 22 21 21 21 20 19 19 19 19 18 18 18 18 17 17 17 17 16 16 16 16 16 16 15 15 15 15 15 15 15 14 14
19 18 17 17 19 19 21 22 22 22 22 22 21 21 21 20 19 19 18 18 18 18 17 17 17 17 16 16 16 16 16 15 15 15 15 15 15 15 15 14 14 14 14 14
18 18 17 17 18 19 20 21 21 22 22 21 21 21 20 20 19 18 18 18 17 17 17 17 16 16 16 16 15 15 15 15 15 15 14 14 14 14 14 14 14 14 14 13
17 17 17 17 18 18 19 20 21 21 21 20 20 20 19 19 19 18 18 17 17 17 16 16 16 16 15 15 15 15 15 14 14 14 14 14 14 14 14 13 13 13 13 13
Wind_Speed
3 1 4 8 8 8 6 3 3 5 3 3 5 6 7 6 8 7 6 7 8 8 7 8 9 9 8 6 6 5 4 3 2 2 2 1 0 0 0 0 1 2 2 2
4 5 11 8 6 4 3 2 3 3 1 2 3 3 4 4 8 9 8 8 9 7 7 8 8 8 7 7 6 5 5 4 3 2 2 2 1 1 1 0 0 1 2 2
7 8 6 3 3 2 3 4 5 4 1 4 4 2 1 2 2 3 5 6 8 11 11 9 8 8 8 7 7 6 5 4 3 2 2 2 2 2 2 2 1 1 1 1
6 7 5 5 5 3 4 5 6 5 3 0 2 1 4 4 3 5 4 5 7 8 9 9 9 8 9 8 7 6 5 4 3 3 3 4 3 1 1 1 1 1 1 1
6 4 4 6 6 4 6 4 3 3 3 3 1 3 5 1 3 6 6 6 7 8 10 10 10 10 9 8 8 6 5 4 4 4 4 4 2 1 0 1 2 2 2 1
7 6 5 6 4 3 2 3 5 5 4 1 4 4 4 5 8 6 7 9 9 8 8 8 8 8 7 7 7 6 6 4 4 4 4 4 4 2 2 1 1 1 1 1
7 7 6 4 3 4 2 5 3 5 4 3 2 2 6 7 7 8 8 9 9 8 7 8 8 8 8 8 7 7 7 5 5 5 4 4 4 4 3 2 2 1 1 1
3 7 5 3 6 5 3 7 6 4 3 3 2 2 6 4 4 5 5 7 8 7 7 8 9 9 9 9 8 7 7 6 6 6 5 4 4 3 2 2 2 2 1 1
5 6 5 3 3 5 2 2 7 6 2 0 2 3 5 2 2 3 5 6 7 7 8 8 8 9 8 8 8 8 8 7 7 7 6 4 4 3 3 2 2 2 1 1
7 4 6 3 3 2 5 5 5 5 4 1 3 3 3 3 2 3 5 6 6 6 7 7 8 7 7 8 7 6 7 8 7 7 6 6 5 4 4 3 3 2 2 1
6 4 6 3 1 3 1 3 4 4 5 6 3 5 5 8 6 6 6 7 7 6 7 7 6 6 6 6 6 6 6 5 5 6 5 5 4 4 4 3 3 2 2 2
4 5 3 6 5 3 4 4 6 4 2 4 4 6 4 6 7 7 6 4 5 6 6 6 6 4 4 5 6 6 5 5 5 5 5 5 4 4 4 4 3 3 2 2
5 6 2 6 7 5 3 1 3 5 4 4 3 5 2 4 5 5 6 5 5 6 6 5 5 4 3 4 5 5 5 5 4 4 4 4 4 4 4 4 4 3 3 2
5 5 6 7 6 2 0 2 3 5 3 3 5 5 0 4 5 4 6 6 6 7 6 6 5 3 3 3 3 3 3 4 5 5 5 4 4 5 5 4 3 3 3 2
6 4 3 4 3 2 2 2 3 4 5 5 6 5 5 6 7 6 6 6 7 6 6 6 5 4 3 3 2 2 2 2 4 4 4 4 3 3 3 3 3 3 2 2
4 4 2 2 2 4 3 2 3 2 3 4 4 1 2 5 7 6 6 6 6 6 5 5 4 4 3 3 2 2 2 2 3 4 3 3 2 3 3 3 3 2 2 1
2 5 3 1 2 5 3 1 2 2 2 5 5 5 4 7 7 6 6 6 5 5 5 5 4 4 3 3 3 3 2 2 2 2 2 2 2 2 2 2 2 2 2 2
5 4 4 2 3 1 6 3 4 4 1 3 5 6 8 8 6 4 7 9 8 6 6 5 4 3 3 2 2 2 2 2 2 1 1 1 1 1 1 2 2 2 2 2
6 7 4 4 3 2 4 2 3 4 1 2 7 8 7 8 7 3 2 6 7 6 6 5 4 3 3 3 3 4 3 3 2 1 0 1 1 1 1 2 2 2 2 2
4 6 6 4 4 4 6 4 2 7 2 1 6 8 8 7 5 4 4 5 6 5 5 5 4 4 4 3 3 4 3 3 2 1 1 0 1 2 2 3 2 2 2 2
2 3 3 4 3 4 5 3 3 4 6 4 6 7 8 6 5 5 6 5 5 5 5 5 5 4 3 3 4 4 2 1 1 1 1 0 1 2 2 2 1 1 1 1
4 3 3 4 3 6 4 3 5 6 4 6 7 7 7 7 7 7 6 5 5 5 4 5 4 3 2 3 4 3 1 1 1 1 1 1 1 1 1 1 1 1 1 1
2 6 5 5 6 4 2 5 5 7 7 5 6 7 9 9 8 7 6 5 5 4 4 4 4 3 2 2 3 2 1 1 2 2 2 1 1 1 0 1 2 1 1 1
3 1 4 4 2 2 4 6 6 7 8 8 9 9 10 9 9 7 6 5 4 4 3 3 4 3 1 1 2 1 0 1 2 2 2 1 1 1 1 0 1 1 1 2
3 2 4 3 1 3 4 5 7 8 10 10 9 9 9 9 8 7 6 4 3 3 2 3 3 2 0 1 1 1 1 1 1 1 1 1 0 0 1 0 1 2 2 3
2 2 4 4 5 5 3 3 8 10 8 8 8 7 7 8 8 6 5 4 4 4 3 3 3 2 1 1 1 2 2 0 1 1 1 1 1 0 0 0 1 2 2 4
Wind_Direction
299 65 250 239 218 212 203 212 268 271 223 155 159 150 164 167 155 153 162 162 164 171 172 161 156 151 143 141 138 138 135 138 123 116 119 114 137 107 52 189 162 154 155 154
344 265 249 247 239 216 196 195 244 284 274 128 143 149 168 178 183 172 169 172 172 168 163 165 159 153 152 155 156 156 159 161 158 154 154 155 161 179 172 343 46 149 157 171
226 251 269 275 253 256 247 185 208 211 37 58 91 27 275 245 202 182 178 182 175 171 171 171 167 163 160 161 165 166 170 163 167 162 123 98 68 44 38 18 359 354 177 181
252 255 274 285 259 231 262 220 190 174 126 72 111 198 261 225 223 209 199 186 184 175 168 172 170 168 169 172 168 164 167 163 163 150 136 133 131 144 214 236 337 4 69 131
262 267 268 267 252 235 222 204 168 150 123 75 42 124 282 228 220 223 207 192 190 177 170 175 181 179 175 171 169 168 163 165 162 152 149 140 135 151 149 62 43 29 19 31
260 271 248 244 266 247 172 59 34 46 75 84 236 157 257 225 208 207 204 194 184 176 171 175 181 173 171 169 169 167 163 173 173 165 155 147 152 151 122 92 84 52 19 359
296 291 269 247 270 304 94 93 38 1 14 257 245 150 238 238 210 194 192 185 178 177 176 176 173 172 171 171 175 173 169 180 184 177 177 172 171 169 166 169 159 146 122 358
242 289 267 229 198 202 205 140 157 189 215 275 337 220 257 254 210 184 174 169 166 178 179 178 178 176 178 179 179 179 180 189 190 186 189 186 172 173 172 170 161 163 173 204
196 258 289 263 210 162 170 164 164 141 147 81 302 301 316 3 82 132 147 157 175 182 178 175 175 174 179 180 184 186 187 193 194 191 189 186 177 175 178 173 161 165 175 168
175 243 293 296 26 19 148 147 87 107 141 206 294 259 227 233 203 169 164 172 183 185 179 170 171 177 183 181 182 183 188 195 193 191 188 184 185 181 174 170 170 172 181 164
159 175 297 341 200 213 114 92 104 113 144 153 205 266 214 194 190 182 180 175 174 163 156 159 173 181 181 173 172 179 187 185 190 191 188 182 182 179 170 175 186 177 171 172
160 142 241 271 266 208 151 163 146 149 209 158 162 258 249 178 173 176 166 157 156 140 137 146 161 161 159 173 176 182 187 188 190 187 181 180 178 174 178 187 192 181 180 187
134 115 77 337 340 1 57 85 126 129 124 142 165 254 302 136 140 155 130 121 125 125 120 110 101 112 142 161 171 177 182 186 182 172 169 177 181 181 188 194 194 190 190 195
117 109 154 191 222 232 36 34 79 108 138 174 207 216 356 129 135 122 112 119 123 119 115 108 97 84 113 132 147 163 178 179 174 170 173 181 191 194 193 192 189 190 186 186
94 122 176 210 219 133 119 115 96 121 163 170 202 189 199 169 151 143 137 127 114 108 106 112 111 98 99 101 109 124 143 161 165 162 172 192 193 186 178 171 173 175 178 181
79 122 88 351 17 67 55 81 117 125 156 155 145 209 221 139 120 118 127 122 119 117 117 112 106 101 99 98 95 94 93 106 127 139 164 178 167 162 169 175 178 177 176 167
97 117 101 285 332 58 2 301 152 158 167 156 175 202 152 124 128 142 143 137 137 137 134 129 125 119 119 114 112 111 108 98 104 126 142 149 155 162 179 178 167 174 177 165
140 113 120 132 61 154 249 252 146 130 115 144 143 150 151 141 133 135 147 141 143 147 143 146 136 126 119 97 87 92 85 87 87 93 131 139 140 162 174 165 179 192 184 175
149 134 119 121 138 257 295 290 152 133 19 169 149 142 135 124 92 74 153 139 139 142 143 145 135 123 97 82 86 85 67 59 64 53 178 189 168 160 163 171 183 184 171 192
77 104 118 128 141 210 241 267 166 106 74 231 147 144 143 126 132 201 179 124 114 112 112 115 105 93 86 75 79 78 63 54 34 342 306 255 181 178 188 190 189 187 183 204
47 57 125 148 171 241 244 230 120 131 208 196 147 141 141 149 173 162 136 119 118 114 105 102 101 102 111 105 96 87 68 35 318 338 13 344 232 206 192 183 179 168 177 187
162 152 179 149 156 233 249 123 155 189 166 142 132 132 126 122 113 113 112 110 108 103 98 101 101 83 68 92 96 82 37 316 7 35 29 345 322 248 179 157 173 166 175 181
183 183 178 178 204 232 191 139 152 146 124 119 116 121 117 115 113 110 109 109 105 105 107 103 105 89 62 74 100 95 327 346 46 35 10 347 352 351 102 160 180 186 198 210
305 81 101 77 33 75 93 95 93 102 108 106 107 110 111 115 116 114 116 110 104 98 102 101 100 90 53 33 66 102 17 45 68 37 348 337 11 349 350 281 189 191 221 234
286 27 85 93 150 59 46 92 107 98 95 92 94 105 117 120 122 123 121 121 114 98 87 92 103 106 31 20 45 44 24 67 60 9 334 323 299 254 323 305 250 221 230 220
302 159 144 185 205 152 166 139 109 101 100 103 102 103 113 122 126 124 126 126 118 109 95 87 78 72 39 22 355 341 336 6 108 3 329 314 282 284 316 44 347 341 281 279
Height
1500 1506 1510 1506 1503 1504 1507 1512 1514 1508 1501 1504 1508 1510 1509 1509 1510 1512 1513 1514 1516 1517 1519 1520 1520 1521 1521 1522 1522 1522 1522 1523 1523 1523 1522 1522 1522 1523 1522 1522 1522 1521 1521 1521
1506 1508 1498 1494 1495 1498 1503 1511 1512 1506 1499 1504 1511 1512 1510 1510 1509 1510 1511 1513 1515 1516 1518 1519 1520 1520 1521 1521 1522 1522 1522 1522 1523 1523 1523 1523 1523 1523 1523 1523 1522 1522 1522 1521
1507 1500 1492 1493 1495 1499 1502 1507 1509 1509 1504 1505 1512 1520 1516 1511 1510 1511 1511 1512 1512 1514 1515 1517 1519 1519 1520 1521 1522 1522 1523 1523 1523 1523 1523 1523 1523 1523 1523 1523 1522 1522 1522 1521
1499 1492 1491 1494 1496 1496 1506 1496 1498 1503 1513 1523 1519 1537 1523 1515 1512 1510 1511 1511 1512 1513 1514 1516 1518 1519 1519 1521 1521 1522 1522 1523 1523 1523 1523 1523 1522 1522 1522 1522 1522 1522 1522 1522
1498 1491 1492 1495 1492 1491 1496 1491 1496 1501 1512 1523 1523 1534 1528 1516 1516 1511 1509 1509 1510 1511 1513 1514 1517 1518 1519 1520 1521 1521 1522 1522 1523 1523 1523 1522 1522 1522 1522 1522 1522 1522 1522 1521
1492 1487 1488 1487 1485 1485 1487 1493 1500 1509 1519 1536 1527 1533 1532 1518 1512 1507 1506 1507 1508 1510 1511 1513 1516 1518 1519 1520 1520 1520 1521 1521 1522 1522 1522 1522 1522 1522 1522 1522 1521 1521 1521 1520
1497 1488 1483 1483 1488 1488 1491 1510 1531 1536 1543 1540 1524 1528 1525 1505 1501 1501 1501 1503 1505 1508 1509 1511 1514 1516 1517 1518 1519 1519 1520 1520 1521 1521 1521 1521 1521 1521 1520 1520 1520 1520 1520 1519
1508 1506 1486 1481 1486 1492 1493 1505 1531 1544 1548 1538 1525 1529 1514 1499 1497 1497 1499 1501 1504 1506 1507 1509 1511 1513 1515 1516 1517 1518 1518 1519 1519 1520 1520 1520 1520 1520 1520 1520 1520 1520 1519 1519
1506 1503 1481 1478 1478 1483 1494 1502 1504 1524 1532 1540 1533 1522 1509 1498 1498 1498 1500 1501 1503 1505 1506 1507 1509 1511 1512 1514 1515 1516 1516 1517 1518 1518 1518 1519 1519 1518 1519 1519 1519 1519 1518 1518
1490 1501 1487 1480 1478 1480 1485 1492 1508 1523 1538 1546 1536 1528 1523 1509 1504 1500 1500 1501 1502 1504 1505 1506 1508 1509 1511 1512 1514 1515 1515 1515 1516 1516 1517 1517 1517 1517 1517 1517 1517 1517 1517 1516
1483 1499 1496 1487 1489 1491 1490 1495 1506 1520 1524 1541 1545 1532 1502 1501 1500 1499 1499 1500 1501 1502 1503 1505 1507 1509 1510 1511 1512 1513 1513 1514 1514 1515 1515 1515 1515 1516 1516 1515 1515 1515 1514 1514
1482 1496 1505 1495 1482 1479 1484 1491 1503 1520 1526 1529 1535 1527 1493 1493 1495 1496 1498 1500 1501 1502 1504 1505 1506 1508 1509 1510 1511 1511 1512 1512 1513 1513 1514 1514 1514 1514 1514 1513 1513 1514 1513 1513
1481 1497 1513 1509 1500 1489 1489 1490 1495 1506 1518 1528 1534 1523 1494 1493 1494 1495 1497 1499 1501 1502 1504 1505 1506 1507 1508 1509 1510 1510 1511 1511 1511 1511 1512 1512 1512 1512 1511 1511 1512 1512 1511 1511
1474 1494 1507 1514 1507 1496 1495 1493 1493 1504 1519 1523 1520 1512 1501 1497 1496 1497 1498 1500 1501 1502 1503 1504 1506 1507 1507 1508 1509 1509 1509 1510 1510 1510 1510 1509 1510 1510 1510 1510 1510 1510 1510 1509
1476 1493 1492 1492 1488 1487 1490 1491 1492 1499 1505 1513 1510 1506 1501 1497 1496 1498 1500 1500 1501 1502 1503 1504 1505 1506 1507 1508 1508 1508 1508 1508 1508 1508 1508 1508 1508 1508 1508 1508 1508 1508 1508 1508
1480 1490 1491 1493 1486 1486 1491 1490 1490 1493 1496 1500 1502 1504 1496 1496 1496 1498 1500 1500 1501 1503 1504 1504 1505 1506 1507 1507 1508 1507 1507 1507 1507 1507 1506 1506 1506 1506 1506 1506 1506 1506 1506 1505
1484 1490 1500 1504 1493 1491 1503 1493 1491 1493 1492 1494 1502 1500 1495 1496 1497 1499 1500 1501 1502 1503 1504 1504 1505 1505 1506 1507 1507 1507 1506 1506 1506 1505 1505 1505 1504 1504 1504 1504 1504 1504 1503 1503
1482 1491 1501 1506 1502 1514 1502 1485 1484 1489 1490 1489 1492 1493 1493 1494 1497 1498 1499 1499 1501 1502 1503 1504 1505 1505 1506 1506 1506 1506 1506 1505 1504 1504 1503 1503 1503 1502 1502 1502 1501 1501 1501 1501
1472 1485 1499 1509 1512 1509 1495 1485 1484 1489 1495 1490 1490 1492 1494 1495 1498 1502 1501 1500 1500 1501 1502 1503 1504 1505 1505 1505 1505 1504 1504 1503 1503 1502 1501 1501 1501 1500 1500 1499 1499 1499 1499 1499
1475 1479 1495 1505 1510 1514 1497 1482 1480 1486 1499 1489 1488 1490 1492 1495 1503 1503 1501 1501 1501 1501 1502 1503 1504 1504 1504 1504 1503 1503 1502 1501 1501 1500 1499 1499 1499 1498 1498 1497 1497 1497 1497 1496
1487 1490 1496 1502 1506 1500 1484 1480 1481 1499 1498 1487 1487 1488 1490 1493 1496 1498 1499 1500 1500 1501 1502 1503 1503 1503 1503 1503 1502 1501 1500 1500 1499 1498 1498 1497 1497 1496 1495 1495 1495 1495 1494 1493
1489 1494 1497 1500 1505 1502 1478 1478 1483 1486 1482 1485 1486 1488 1491 1493 1495 1497 1499 1500 1501 1501 1502 1502 1502 1502 1502 1502 1501 1500 1499 1498 1498 1497 1496 1495 1494 1493 1493 1493 1492 1492 1491 1490
1482 1482 1485 1489 1491 1479 1475 1476 1478 1479 1481 1484 1486 1488 1490 1493 1495 1498 1499 1500 1501 1501 1501 1501 1501 1501 1501 1501 1500 1498 1498 1497 1496 1495 1493 1492 1491 1491 1490 1490 1489 1489 1489 1488
1477 1474 1479 1484 1482 1479 1478 1477 1479 1481 1482 1485 1486 1488 1491 1493 1496 1498 1499 1500 1500 1501 1501 1501 1500 1500 1499 1499 1498 1497 1496 1495 1494 1492 1491 1490 1489 1488 1488 1487 1487 1486 1486 1485
1478 1476 1479 1483 1482 1481 1481 1480 1481 1482 1483 1485 1487 1489 1491 1494 1496 1497 1498 1499 1500 1500 1500 1500 1499 1499 1498 1497 1496 1495 1495 1493 1492 1490 1489 1488 1486 1485 1485 1484 1484 1483 1483 1483
1476 1477 1480 1483 1479 1480 1482 1482 1482 1483 1485 1487 1488 1491 1492 1493 1495 1497 1498 1499 1499 1499 1499 1499 1498 1497 1496 1495 1495 1494 1493 1492 1490 1488 1487 1485 1484 1483 1482 1481 1481 1480 1480 1480